| time (UTC) | temp F | wind direction | speed knots | gust knots | rain 1hr in | rain 24hr in | rain mn in | humidity % | barometer mb |
| 20260506015207 | 52 | 329 | 1.7 | 2.6 | 0.00 | 0.00 | 0.00 | 75 | 1010.5 |
| 20260506014704 | 52 | 3 | 5.2 | 6.1 | 0.00 | 0.00 | 0.00 | 75 | 1010.3 |
| 20260506014159 | 52 | 32 | 1.7 | 2.6 | 0.00 | 0.00 | 0.00 | 75 | 1010.1 |
| 20260506013658 | 52 | 45 | 1.7 | 3.5 | 0.00 | 0.00 | 0.00 | 75 | 1010.0 |
| 20260506013154 | 52 | 39 | 2.6 | 2.6 | 0.00 | 0.00 | 0.00 | 74 | 1009.9 |
| 20260506012650 | 52 | 313 | 2.6 | 2.6 | 0.00 | 0.00 | 0.00 | 75 | 1009.7 |
| 20260506012147 | 52 | 48 | 1.7 | 1.7 | 0.00 | 0.00 | 0.00 | 74 | 1009.6 |
| 20260506011645 | 52 | 38 | 2.6 | 3.5 | 0.00 | 0.00 | 0.00 | 74 | 1009.6 |
| 20260506011141 | 52 | 344 | 5.2 | 7.8 | 0.00 | 0.00 | 0.00 | 74 | 1009.7 |
| 20260506010640 | 52 | 51 | 3.5 | 5.2 | 0.00 | 0.00 | 0.00 | 74 | 1009.7 |
| 20260506010136 | 52 | 48 | 1.7 | 1.7 | 0.00 | 0.00 | 0.00 | 74 | 1009.7 |
| 20260506005633 | 52 | 0 | 4.3 | 7.8 | 0.00 | 0.00 | 0.00 | 74 | 1009.6 |
| 20260506005130 | 52 | 266 | 6.1 | 7.8 | 0.00 | 0.00 | 0.00 | 74 | 1009.3 |
| 20260506004626 | 52 | 359 | 2.6 | 3.5 | 0.00 | 0.00 | 0.00 | 74 | 1009.4 |
| 20260506004124 | 52 | 32 | 1.7 | 2.6 | 0.00 | 0.00 | 0.00 | 74 | 1009.1 |
| 20260506003620 | 53 | 42 | 3.5 | 3.5 | 0.00 | 0.00 | 0.00 | 74 | 1009.2 |
| 20260506003116 | 53 | 46 | 1.7 | 2.6 | 0.00 | 0.00 | 0.00 | 73 | 1009.4 |
| 20260506002612 | 53 | 53 | 2.6 | 3.5 | 0.00 | 0.00 | 0.00 | 73 | 1009.5 |
| 20260506002108 | 53 | 359 | 2.6 | 5.2 | 0.00 | 0.00 | 0.00 | 73 | 1009.4 |
| 20260506001604 | 53 | 62 | 2.6 | 3.5 | 0.00 | 0.00 | 0.00 | 73 | 1009.4 |
| 20260506001102 | 53 | 68 | 3.5 | 5.2 | 0.00 | 0.00 | 0.00 | 72 | 1008.8 |
| 20260506000559 | 53 | 353 | 5.2 | 7.8 | 0.00 | 0.00 | 0.00 | 72 | 1008.6 |
| 20260506000056 | 53 | 0 | 6.1 | 7.8 | 0.00 | 0.00 | 0.00 | 71 | 1009.1 |
| 20260505235554 | 53 | 17 | 6.1 | 8.7 | 0.00 | 0.00 | 0.00 | 71 | 1008.9 |
| 20260505235051 | 53 | 48 | 4.3 | 7.0 | 0.00 | 0.00 | 0.00 | 71 | 1009.2 |
| 20260505234548 | 53 | 25 | 5.2 | 7.0 | 0.00 | 0.00 | 0.00 | 69 | 1009.1 |
| 20260505234044 | 53 | 10 | 5.2 | 6.1 | 0.00 | 0.00 | 0.00 | 70 | 1009.2 |
| 20260505233542 | 53 | 25 | 4.3 | 6.1 | 0.00 | 0.00 | 0.00 | 69 | 1009.1 |
| 20260505233040 | 53 | 23 | 5.2 | 7.8 | 0.00 | 0.00 | 0.00 | 70 | 1009.1 |
| 20260505232537 | 53 | 35 | 4.3 | 7.8 | 0.00 | 0.00 | 0.00 | 70 | 1008.9 |
| 20260505232035 | 53 | 19 | 3.5 | 6.1 | 0.00 | 0.00 | 0.00 | 70 | 1008.8 |
| 20260505231531 | 54 | 33 | 3.5 | 6.1 | 0.00 | 0.00 | 0.00 | 69 | 1008.8 |
| 20260505231030 | 54 | 41 | 2.6 | 5.2 | 0.00 | 0.00 | 0.00 | 69 | 1008.9 |
| 20260505230527 | 54 | 326 | 2.6 | 5.2 | 0.00 | 0.00 | 0.00 | 69 | 1008.9 |
| 20260505230024 | 54 | 285 | 3.5 | 5.2 | 0.00 | 0.00 | 0.00 | 69 | 1008.5 |
| 20260505225520 | 54 | 354 | 3.5 | 3.5 | 0.00 | 0.00 | 0.00 | 70 | 1008.4 |
| 20260505225016 | 54 | 1 | 3.5 | 3.5 | 0.00 | 0.00 | 0.00 | 69 | 1008.2 |
| 20260505224514 | 54 | 13 | 2.6 | 2.6 | 0.00 | 0.00 | 0.00 | 70 | 1008.1 |
| 20260505224011 | 54 | 358 | 6.1 | 7.8 | 0.00 | 0.00 | 0.00 | 68 | 1007.9 |
| 20260505223508 | 55 | 10 | 1.7 | 2.6 | 0.00 | 0.00 | 0.00 | 69 | 1007.9 |
| 20260505223004 | 55 | 309 | 4.3 | 5.2 | 0.00 | 0.00 | 0.00 | 67 | 1007.8 |
| 20260505222500 | 55 | 21 | 1.7 | 1.7 | 0.00 | 0.00 | 0.00 | 67 | 1007.9 |
| 20260505221956 | 55 | 21 | 2.6 | 5.2 | 0.00 | 0.00 | 0.00 | 68 | 1007.8 |
| 20260505221453 | 55 | 296 | 4.3 | 7.8 | 0.00 | 0.00 | 0.00 | 68 | 1007.7 |
| 20260505220950 | 55 | 269 | 5.2 | 7.8 | 0.00 | 0.00 | 0.00 | 69 | 1007.6 |
| 20260505220447 | 55 | 23 | 7.8 | 12.2 | 0.00 | 0.00 | 0.00 | 67 | 1007.4 |
| 20260505215945 | 55 | 25 | 2.6 | 5.2 | 0.00 | 0.00 | 0.00 | 69 | 1007.4 |
| 20260505215443 | 55 | 52 | 0.9 | 1.7 | 0.00 | 0.00 | 0.00 | 69 | 1007.4 |
| 20260505214940 | 55 | 253 | 2.6 | 2.6 | 0.00 | 0.00 | 0.00 | 68 | 1007.6 |
| 20260505214438 | 55 | 31 | 3.5 | 7.0 | 0.00 | 0.00 | 0.00 | 70 | 1007.7 |
| 20260505213935 | 55 | 3 | 3.5 | 5.2 | 0.00 | 0.00 | 0.00 | 70 | 1007.4 |
| 20260505213433 | 55 | 29 | 7.0 | 7.8 | 0.00 | 0.00 | 0.00 | 70 | 1007.6 |
| 20260505212929 | 55 | 351 | 2.6 | 3.5 | 0.00 | 0.00 | 0.00 | 71 | 1007.8 |
| 20260505212426 | 55 | 352 | 5.2 | 6.1 | 0.00 | 0.00 | 0.00 | 70 | 1007.8 |
| 20260505211922 | 56 | 8 | 4.3 | 6.1 | 0.00 | 0.00 | 0.00 | 70 | 1007.7 |
| 20260505211420 | 55 | 344 | 5.2 | 7.8 | 0.00 | 0.00 | 0.00 | 70 | 1007.5 |
| 20260505210916 | 55 | 28 | 3.5 | 5.2 | 0.00 | 0.00 | 0.00 | 72 | 1007.7 |
| 20260505210414 | 55 | 39 | 2.6 | 5.2 | 0.00 | 0.00 | 0.00 | 72 | 1007.2 |
| 20260505205910 | 55 | 12 | 5.2 | 7.0 | 0.00 | 0.00 | 0.00 | 71 | 1007.0 |
| 20260505205409 | 55 | 351 | 3.5 | 5.2 | 0.00 | 0.00 | 0.00 | 72 | 1007.0 |
| 20260505204905 | 55 | 18 | 2.6 | 3.5 | 0.00 | 0.00 | 0.00 | 72 | 1007.1 |
| 20260505204403 | 55 | 5 | 3.5 | 3.5 | 0.00 | 0.00 | 0.00 | 73 | 1007.2 |
| 20260505203900 | 55 | 47 | 1.7 | 3.5 | 0.00 | 0.00 | 0.00 | 73 | 1007.3 |
| 20260505203356 | 55 | 11 | 3.5 | 3.5 | 0.00 | 0.00 | 0.00 | 72 | 1007.3 |
| 20260505202853 | 55 | 294 | 3.5 | 3.5 | 0.00 | 0.00 | 0.00 | 74 | 1007.7 |
| 20260505202349 | 55 | 63 | 1.7 | 2.6 | 0.00 | 0.00 | 0.00 | 74 | 1007.7 |
| 20260505201846 | 55 | 73 | 4.3 | 6.1 | 0.00 | 0.00 | 0.00 | 75 | 1007.1 |
| 20260505201343 | 55 | 340 | 6.1 | 13.0 | 0.00 | 0.00 | 0.00 | 74 | 1007.3 |
| 20260505200841 | 56 | 330 | 3.5 | 5.2 | 0.00 | 0.00 | 0.00 | 74 | 1007.1 |
| 20260505200338 | 56 | 31 | 3.5 | 5.2 | 0.00 | 0.00 | 0.00 | 73 | 1007.0 |
| 20260505195833 | 57 | 342 | 3.5 | 6.1 | 0.00 | 0.00 | 0.00 | 73 | 1007.0 |
| 20260505195331 | 57 | 30 | 5.2 | 7.8 | 0.00 | 0.00 | 0.00 | 73 | 1007.1 |
| 20260505194828 | 57 | 71 | 3.5 | 6.1 | 0.00 | 0.00 | 0.00 | 73 | 1007.0 |
| 20260505194325 | 57 | 322 | 5.2 | 7.8 | 0.00 | 0.00 | 0.00 | 73 | 1007.1 |
| 20260505193820 | 56 | 46 | 1.7 | 2.6 | 0.00 | 0.00 | 0.00 | 75 | 1007.2 |
| 20260505193318 | 56 | 38 | 3.5 | 5.2 | 0.00 | 0.00 | 0.00 | 74 | 1007.1 |
| 20260505192816 | 56 | 60 | 4.3 | 6.1 | 0.00 | 0.00 | 0.00 | 75 | 1007.0 |
| 20260505192314 | 56 | 44 | 1.7 | 1.7 | 0.00 | 0.00 | 0.00 | 76 | 1007.0 |
| 20260505191812 | 56 | 351 | 4.3 | 7.0 | 0.00 | 0.00 | 0.00 | 75 | 1006.8 |
| 20260505191310 | 56 | 339 | 4.3 | 7.0 | 0.00 | 0.00 | 0.00 | 75 | 1006.7 |
| 20260505190806 | 56 | 40 | 3.5 | 5.2 | 0.00 | 0.00 | 0.00 | 76 | 1006.6 |
| 20260505190301 | 56 | 310 | 5.2 | 8.7 | 0.00 | 0.00 | 0.00 | 76 | 1006.5 |
| 20260505185758 | 56 | 267 | 2.6 | 5.2 | 0.00 | 0.00 | 0.00 | 76 | 1006.6 |
| 20260505185254 | 56 | 26 | 0.9 | 1.7 | 0.00 | 0.00 | 0.00 | 77 | 1006.5 |
| 20260505184750 | 56 | 20 | 1.7 | 3.5 | 0.00 | 0.00 | 0.00 | 77 | 1006.4 |
| 20260505184248 | 56 | 284 | 7.8 | 9.6 | 0.00 | 0.00 | 0.00 | 78 | 1006.3 |
| 20260505183744 | 56 | 48 | 1.7 | 1.7 | 0.00 | 0.00 | 0.00 | 78 | 1006.3 |
| 20260505183242 | 56 | 225 | 2.6 | 3.5 | 0.00 | 0.00 | 0.00 | 78 | 1006.4 |
| 20260505182738 | 56 | 356 | 8.7 | 13.9 | 0.00 | 0.00 | 0.00 | 78 | 1006.4 |
| 20260505182235 | 56 | 6 | 5.2 | 7.8 | 0.00 | 0.00 | 0.00 | 78 | 1006.2 |
| 20260505181731 | 57 | 13 | 1.7 | 2.6 | 0.00 | 0.00 | 0.00 | 78 | 1006.5 |
| 20260505181229 | 57 | 73 | 3.5 | 5.2 | 0.00 | 0.00 | 0.00 | 79 | 1006.5 |
| 20260505180725 | 57 | 19 | 2.6 | 2.6 | 0.00 | 0.00 | 0.00 | 80 | 1006.4 |
| 20260505180222 | 57 | 0 | 2.6 | 3.5 | 0.00 | 0.00 | 0.00 | 80 | 1006.5 |
| 20260505175718 | 57 | 17 | 4.3 | 7.0 | 0.00 | 0.00 | 0.00 | 80 | 1006.3 |
| 20260505175215 | 57 | 296 | 1.7 | 2.6 | 0.00 | 0.00 | 0.00 | 81 | 1005.9 |
| 20260505174711 | 57 | 316 | 4.3 | 7.0 | 0.00 | 0.00 | 0.00 | 81 | 1005.8 |
| 20260505174208 | 57 | 5 | 5.2 | 9.6 | 0.00 | 0.00 | 0.00 | 81 | 1005.5 |
| 20260505173704 | 57 | 28 | 4.3 | 7.0 | 0.00 | 0.00 | 0.00 | 81 | 1005.3 |
| 20260505173201 | 57 | 192 | 2.6 | 3.5 | 0.00 | 0.00 | 0.00 | 81 | 1005.6 |
| 20260505172659 | 57 | 31 | 3.5 | 6.1 | 0.00 | 0.00 | 0.00 | 81 | 1005.4 |
| 20260505172155 | 57 | 323 | 3.5 | 5.2 | 0.00 | 0.00 | 0.00 | 81 | 1005.4 |
| 20260505171655 | 57 | 331 | 5.2 | 7.0 | 0.00 | 0.00 | 0.00 | 81 | 1005.4 |
| 20260505171152 | 57 | 50 | 1.7 | 2.6 | 0.00 | 0.00 | 0.00 | 82 | 1005.5 |
| 20260505170649 | 58 | 58 | 1.7 | 1.7 | 0.00 | 0.00 | 0.00 | 82 | 1005.5 |
| 20260505170146 | 57 | 38 | 1.7 | 2.6 | 0.00 | 0.00 | 0.00 | 83 | 1005.5 |
| 20260505165646 | 57 | 291 | 2.6 | 3.5 | 0.00 | 0.00 | 0.00 | 82 | 1005.2 |
| 20260505165143 | 58 | 25 | 4.3 | 5.2 | 0.00 | 0.00 | 0.00 | 83 | 1004.9 |
| 20260505164638 | 58 | 0 | 6.1 | 8.7 | 0.00 | 0.00 | 0.00 | 82 | 1004.9 |
| 20260505164136 | 58 | 53 | 1.7 | 3.5 | 0.00 | 0.00 | 0.00 | 82 | 1004.8 |
| 20260505163634 | 58 | 58 | 3.5 | 3.5 | 0.00 | 0.00 | 0.00 | 82 | 1004.9 |
| 20260505163131 | 58 | 338 | 8.7 | 9.6 | 0.00 | 0.00 | 0.00 | 82 | 1004.6 |
| 20260505162628 | 58 | 55 | 0.9 | 1.7 | 0.00 | 0.00 | 0.00 | 83 | 1004.9 |
| 20260505162126 | 59 | 323 | 6.1 | 7.8 | 0.00 | 0.00 | 0.00 | 82 | 1004.5 |
| 20260505161623 | 59 | 353 | 3.5 | 6.1 | 0.00 | 0.00 | 0.00 | 82 | 1004.3 |
| 20260505161120 | 59 | 350 | 5.2 | 8.7 | 0.00 | 0.00 | 0.00 | 81 | 1004.7 |
| 20260505160618 | 59 | 347 | 6.1 | 8.7 | 0.00 | 0.00 | 0.00 | 81 | 1004.6 |
| 20260505160115 | 60 | 300 | 3.5 | 7.0 | 0.00 | 0.00 | 0.00 | 81 | 1004.2 |
| 20260505153055 | 63 | 313 | 5.2 | 11.3 | 0.00 | 0.00 | 0.00 | 81 | 1003.7 |
| 20260505152551 | 64 | 230 | 3.5 | 3.5 | 0.00 | 0.00 | 0.00 | 79 | 1003.7 |
| 20260505152047 | 66 | 74 | 1.7 | 1.7 | 0.00 | 0.00 | 0.00 | 78 | 1003.4 |
| 20260505151547 | 68 | 317 | 6.1 | 9.6 | 0.00 | 0.00 | 0.00 | 79 | 1003.2 |
| 20260505151046 | 68 | 34 | 1.7 | 2.6 | 0.00 | 0.00 | 0.00 | 78 | 1003.2 |
| 20260505150542 | 69 | 351 | 4.3 | 7.0 | 0.00 | 0.00 | 0.00 | 77 | 1002.9 |
| 20260505140507 | 70 | 72 | 0.0 | 0.9 | 0.00 | 0.00 | 0.00 | 78 | 1002.4 |
| 20260505124920 | 68 | 87 | 1.7 | 1.7 | 0.00 | 0.00 | 0.00 | 79 | 1002.5 |
| 20260505124417 | 68 | 41 | 0.9 | 1.7 | 0.00 | 0.00 | 0.00 | 79 | 1002.7 |
| 20260505123913 | 67 | 53 | 0.9 | 0.9 | 0.00 | 0.00 | 0.00 | 79 | 1002.6 |
| 20260505123410 | 67 | 77 | 1.7 | 2.6 | 0.00 | 0.00 | 0.00 | 79 | 1002.5 |
| 20260505122905 | 67 | 51 | 0.9 | 0.9 | 0.00 | 0.00 | 0.00 | 79 | 1002.5 |
| 20260505122403 | 67 | 61 | 1.7 | 1.7 | 0.00 | 0.00 | 0.00 | 79 | 1002.5 |
| 20260505121900 | 67 | 36 | 0.0 | 0.9 | 0.00 | 0.00 | 0.00 | 80 | 1002.4 |
| 20260505121357 | 67 | 41 | 1.7 | 1.7 | 0.00 | 0.00 | 0.00 | 79 | 1002.0 |
| 20260505120853 | 67 | 40 | 1.7 | 1.7 | 0.00 | 0.00 | 0.00 | 79 | 1002.1 |
| 20260505120349 | 67 | 341 | 1.7 | 2.6 | 0.00 | 0.00 | 0.00 | 79 | 1002.2 |
| 20260505115848 | 67 | 57 | 0.9 | 0.9 | 0.00 | 0.00 | 0.00 | 79 | 1002.2 |
| 20260505115345 | 67 | 39 | 1.7 | 2.6 | 0.00 | 0.00 | 0.00 | 79 | 1002.3 |
| 20260505114843 | 67 | 46 | 1.7 | 1.7 | 0.00 | 0.00 | 0.00 | 80 | 1002.2 |
| 20260505114339 | 67 | 41 | 0.9 | 0.9 | 0.00 | 0.00 | 0.00 | 80 | 1002.1 |
| 20260505113835 | 67 | 42 | 1.7 | 2.6 | 0.00 | 0.00 | 0.00 | 80 | 1002.3 |
| 20260505113332 | 67 | 41 | 1.7 | 1.7 | 0.00 | 0.00 | 0.00 | 80 | 1002.1 |
| 20260505112828 | 67 | 36 | 1.7 | 1.7 | 0.00 | 0.00 | 0.00 | 80 | 1002.1 |
| 20260505112326 | 67 | 41 | 1.7 | 2.6 | 0.00 | 0.00 | 0.00 | 80 | 1002.0 |
| 20260505111821 | 67 | 41 | 1.7 | 1.7 | 0.00 | 0.00 | 0.00 | 80 | 1002.1 |
| 20260505111317 | 67 | 27 | 1.7 | 2.6 | 0.00 | 0.00 | 0.00 | 79 | 1001.9 |
| 20260505110813 | 67 | 40 | 1.7 | 1.7 | 0.00 | 0.00 | 0.00 | 79 | 1001.8 |
| 20260505110311 | 67 | 37 | 0.0 | 0.9 | 0.00 | 0.00 | 0.00 | 79 | 1001.8 |
| 20260505101745 | 67 | 43 | 1.7 | 1.7 | 0.00 | 0.00 | 0.00 | 79 | 1001.1 |
| 20260505101240 | 67 | 47 | 2.6 | 2.6 | 0.00 | 0.00 | 0.00 | 79 | 1001.0 |
| 20260505100737 | 67 | 31 | 1.7 | 1.7 | 0.00 | 0.00 | 0.00 | 78 | 1000.9 |
| 20260505100234 | 67 | 49 | 0.9 | 1.7 | 0.00 | 0.00 | 0.00 | 79 | 1001.0 |
| 20260505095729 | 67 | 43 | 0.9 | 1.7 | 0.00 | 0.00 | 0.00 | 78 | 1000.8 |
| 20260505095228 | 67 | 55 | 0.9 | 1.7 | 0.00 | 0.00 | 0.00 | 78 | 1000.7 |
| 20260505094723 | 68 | 60 | 0.9 | 0.9 | 0.00 | 0.00 | 0.00 | 78 | 1000.8 |
| 20260505094219 | 68 | 52 | 0.9 | 0.9 | 0.00 | 0.00 | 0.00 | 77 | 1000.7 |
| 20260505093716 | 68 | 49 | 1.7 | 3.5 | 0.00 | 0.00 | 0.00 | 77 | 1000.9 |
| 20260505093214 | 68 | 30 | 1.7 | 1.7 | 0.00 | 0.00 | 0.00 | 76 | 1000.6 |
| 20260505092710 | 69 | 41 | 0.9 | 1.7 | 0.00 | 0.00 | 0.00 | 76 | 1000.9 |
| 20260505092209 | 69 | 48 | 0.9 | 0.9 | 0.00 | 0.00 | 0.00 | 76 | 1000.7 |
| 20260505091705 | 69 | 68 | 0.9 | 1.7 | 0.00 | 0.00 | 0.00 | 76 | 1000.8 |
| 20260505091203 | 69 | 50 | 0.9 | 0.9 | 0.00 | 0.00 | 0.00 | 76 | 1000.8 |
| 20260505090701 | 69 | 57 | 0.0 | 0.0 | 0.00 | 0.00 | 0.00 | 76 | 1001.0 |
| 20260505090159 | 69 | 58 | 0.0 | 0.0 | 0.00 | 0.00 | 0.00 | 75 | 1001.0 |
| 20260505085656 | 69 | 58 | 0.0 | 0.9 | 0.00 | 0.00 | 0.00 | 75 | 1000.9 |
| 20260505085154 | 69 | 57 | 0.0 | 0.0 | 0.00 | 0.00 | 0.00 | 75 | 1001.0 |
| 20260505084651 | 69 | 46 | 0.9 | 1.7 | 0.00 | 0.00 | 0.00 | 75 | 1001.1 |
| 20260505084150 | 69 | 57 | 0.0 | 0.0 | 0.00 | 0.00 | 0.00 | 75 | 1001.0 |
| 20260505083647 | 69 | 56 | 0.0 | 0.9 | 0.00 | 0.00 | 0.00 | 74 | 1000.9 |
| 20260505083143 | 69 | 42 | 0.9 | 1.7 | 0.00 | 0.00 | 0.00 | 74 | 1001.2 |
| 20260505082639 | 69 | 54 | 0.9 | 0.9 | 0.00 | 0.00 | 0.00 | 74 | 1001.0 |
| 20260505082136 | 69 | 55 | 1.7 | 2.6 | 0.00 | 0.00 | 0.00 | 74 | 1001.0 |
| 20260505081632 | 69 | 60 | 0.0 | 0.9 | 0.00 | 0.00 | 0.00 | 74 | 1001.2 |
| 20260505081130 | 69 | 49 | 0.0 | 0.0 | 0.00 | 0.00 | 0.00 | 74 | 1001.2 |
| 20260505080626 | 69 | 46 | 0.9 | 0.9 | 0.00 | 0.00 | 0.00 | 74 | 1001.1 |
| 20260505080123 | 69 | 58 | 0.9 | 0.9 | 0.00 | 0.00 | 0.00 | 74 | 1001.2 |
| 20260505075619 | 69 | 45 | 0.0 | 0.9 | 0.00 | 0.00 | 0.00 | 73 | 1001.2 |
| 20260505075116 | 69 | 45 | 0.9 | 0.9 | 0.00 | 0.00 | 0.00 | 74 | 1001.3 |
| 20260505074613 | 69 | 44 | 0.9 | 1.7 | 0.00 | 0.00 | 0.00 | 73 | 1001.5 |
| 20260505074110 | 69 | 48 | 0.0 | 0.9 | 0.00 | 0.00 | 0.00 | 73 | 1001.5 |
| 20260505073607 | 69 | 52 | 0.0 | 0.0 | 0.00 | 0.00 | 0.00 | 74 | 1001.5 |
| 20260505073106 | 69 | 50 | 1.7 | 1.7 | 0.00 | 0.00 | 0.00 | 73 | 1001.6 |
| 20260505072601 | 69 | 44 | 0.9 | 0.9 | 0.00 | 0.00 | 0.00 | 73 | 1001.8 |
| 20260505072058 | 69 | 34 | 1.7 | 1.7 | 0.00 | 0.00 | 0.00 | 73 | 1001.8 |
| 20260505071553 | 69 | 42 | 0.9 | 1.7 | 0.00 | 0.00 | 0.00 | 74 | 1001.9 |
| 20260505071051 | 69 | 41 | 1.7 | 2.6 | 0.00 | 0.00 | 0.00 | 74 | 1002.0 |
| 20260505070548 | 69 | 43 | 0.9 | 0.9 | 0.00 | 0.00 | 0.00 | 74 | 1002.0 |
| 20260505070044 | 70 | 44 | 1.7 | 1.7 | 0.00 | 0.00 | 0.00 | 74 | 1001.9 |
| 20260505065540 | 69 | 41 | 0.9 | 0.9 | 0.00 | 0.00 | 0.00 | 74 | 1002.0 |
| 20260505065037 | 69 | 43 | 0.9 | 0.9 | 0.00 | 0.00 | 0.00 | 74 | 1002.1 |
| 20260505064534 | 69 | 42 | 1.7 | 1.7 | 0.00 | 0.00 | 0.00 | 74 | 1002.2 |
| 20260505064032 | 69 | 39 | 0.9 | 0.9 | 0.00 | 0.00 | 0.00 | 75 | 1002.2 |
| 20260505063529 | 69 | 27 | 0.0 | 0.0 | 0.00 | 0.00 | 0.00 | 75 | 1002.4 |
| 20260505063025 | 69 | 38 | 0.0 | 0.0 | 0.00 | 0.00 | 0.00 | 75 | 1002.4 |
| 20260505062522 | 69 | 42 | 0.0 | 0.9 | 0.00 | 0.00 | 0.00 | 74 | 1002.2 |
| 20260505062020 | 69 | 32 | 0.9 | 0.9 | 0.00 | 0.00 | 0.00 | 73 | 1002.1 |
| 20260505061517 | 70 | 54 | 0.0 | 0.0 | 0.00 | 0.00 | 0.00 | 73 | 1001.9 |
| 20260505061015 | 70 | 55 | 0.0 | 0.0 | 0.00 | 0.00 | 0.00 | 72 | 1001.5 |
| 20260505060512 | 69 | 92 | 0.0 | 1.7 | 0.00 | 0.00 | 0.00 | 73 | 1001.5 |
| 20260505060008 | 69 | 67 | 0.0 | 0.0 | 0.00 | 0.00 | 0.00 | 72 | 1001.3 |
| 20260505055504 | 70 | 67 | 0.0 | 0.0 | 0.00 | 0.00 | 0.00 | 72 | 1001.1 |
| 20260505055000 | 70 | 68 | 0.9 | 0.9 | 0.00 | 0.00 | 0.00 | 71 | 1001.3 |
| 20260505054458 | 70 | 86 | 0.9 | 0.9 | 0.00 | 0.00 | 0.00 | 71 | 1001.4 |
| 20260505053956 | 70 | 62 | 0.9 | 0.9 | 0.00 | 0.00 | 0.00 | 71 | 1001.3 |
| 20260505053453 | 70 | 79 | 0.9 | 1.7 | 0.00 | 0.00 | 0.00 | 71 | 1001.3 |
| 20260505052949 | 70 | 72 | 0.0 | 0.0 | 0.00 | 0.00 | 0.00 | 71 | 1001.5 |
| 20260505052447 | 70 | 97 | 1.7 | 1.7 | 0.00 | 0.00 | 0.00 | 70 | 1001.6 |
| 20260505051944 | 70 | 92 | 0.9 | 1.7 | 0.00 | 0.00 | 0.00 | 70 | 1001.7 |
| 20260505051440 | 70 | 140 | 1.7 | 1.7 | 0.00 | 0.00 | 0.00 | 69 | 1002.0 |
| 20260505050939 | 70 | 67 | 0.9 | 0.9 | 0.00 | 0.00 | 0.00 | 69 | 1001.8 |
| 20260505050437 | 70 | 83 | 1.7 | 1.7 | 0.00 | 0.00 | 0.00 | 69 | 1001.7 |
| 20260505041404 | 71 | 130 | 0.9 | 1.7 | 0.00 | 0.00 | 0.00 | 66 | 1001.5 |
| 20260505040901 | 71 | 81 | 2.6 | 3.5 | 0.00 | 0.00 | 0.00 | 66 | 1001.6 |
| 20260505040359 | 70 | 96 | 1.7 | 1.7 | 0.00 | 0.00 | 0.00 | 66 | 1001.8 |
| 20260505035855 | 70 | 91 | 1.7 | 1.7 | 0.00 | 0.00 | 0.00 | 66 | 1001.8 |
| 20260505035351 | 70 | 81 | 0.9 | 1.7 | 0.00 | 0.00 | 0.00 | 66 | 1002.0 |
| 20260505034849 | 70 | 88 | 3.5 | 5.2 | 0.00 | 0.00 | 0.00 | 66 | 1002.1 |
| 20260505034345 | 70 | 116 | 0.9 | 0.9 | 0.00 | 0.00 | 0.00 | 67 | 1002.0 |
| 20260505033842 | 70 | 11 | 0.9 | 0.9 | 0.00 | 0.00 | 0.00 | 67 | 1001.8 |
| 20260505033339 | 71 | 63 | 0.9 | 1.7 | 0.00 | 0.00 | 0.00 | 66 | 1002.4 |
| 20260505032838 | 71 | 91 | 0.9 | 2.6 | 0.00 | 0.00 | 0.00 | 65 | 1002.2 |
| 20260505032334 | 71 | 83 | 1.7 | 1.7 | 0.00 | 0.00 | 0.00 | 64 | 1002.1 |
| 20260505031831 | 71 | 125 | 1.7 | 2.6 | 0.00 | 0.00 | 0.00 | 64 | 1002.4 |
| 20260505031327 | 71 | 90 | 0.9 | 0.9 | 0.00 | 0.00 | 0.00 | 64 | 1002.4 |
| 20260505030825 | 71 | 78 | 0.9 | 0.9 | 0.00 | 0.00 | 0.00 | 63 | 1002.6 |
| 20260505030321 | 71 | 70 | 0.9 | 0.9 | 0.00 | 0.00 | 0.00 | 63 | 1002.5 |
| 20260505025816 | 71 | 88 | 2.6 | 2.6 | 0.00 | 0.00 | 0.00 | 63 | 1002.4 |
| 20260505025314 | 71 | 63 | 1.7 | 1.7 | 0.00 | 0.00 | 0.00 | 63 | 1002.5 |
| 20260505024812 | 71 | 23 | 0.9 | 2.6 | 0.00 | 0.00 | 0.00 | 63 | 1002.5 |
| 20260505024309 | 71 | 91 | 0.9 | 1.7 | 0.00 | 0.00 | 0.00 | 63 | 1002.8 |
| 20260505023807 | 71 | 81 | 0.9 | 0.9 | 0.00 | 0.00 | 0.00 | 63 | 1002.8 |
| 20260505023303 | 71 | 91 | 0.9 | 0.9 | 0.00 | 0.00 | 0.00 | 62 | 1002.9 |
| 20260505022801 | 71 | 69 | 0.9 | 1.7 | 0.00 | 0.00 | 0.00 | 62 | 1002.7 |
| 20260505022258 | 72 | 95 | 1.7 | 1.7 | 0.00 | 0.00 | 0.00 | 62 | 1002.8 |
| 20260505021754 | 72 | 74 | 0.9 | 1.7 | 0.00 | 0.00 | 0.00 | 62 | 1002.5 |
| 20260505021251 | 72 | 71 | 0.9 | 1.7 | 0.00 | 0.00 | 0.00 | 62 | 1002.6 |
| 20260505020747 | 72 | 81 | 0.9 | 0.9 | 0.00 | 0.00 | 0.00 | 62 | 1002.7 |
| 20260505020242 | 72 | 77 | 0.9 | 0.9 | 0.00 | 0.00 | 0.00 | 62 | 1002.7 |
| 20260505015740 | 72 | 96 | 0.9 | 1.7 | 0.00 | 0.00 | 0.00 | 62 | 1002.6 |